SCP
0 0 0 0 0 0 0 0 0 0 0 0 0 0 0 0 0 0 0 0 0 0 0 0 0 0 0 0 0 0 0 0 0 0 0 0 0 0 0 0 0 0 0
0 0 0 0 0 0 0 0 0 0 0 0 0 0 0 0 0 0 0 -0 0 0 0 0 0 0 0 0 0 0 0 0 -0 0 0 0 0 0 0 0 0 0 0
0 0 0 0 0 0 0 0 0 0 0 0 0 0 0 0 0 0 -0 0 0 0 0 0 0 0 0 0 0 0 0 0 0 0 0 0 0 0 0 0 0 0 0
0 0 0 0 0 0 0 0 0 0 0 0 0 0 0 0 0 0 0 0 0 0 0 0 0 0 0 0 0 0 -0 0 0 0 0 0 0 0 0 0 0 0 0
0 0 0 0 0 0 0 0 0 0 0 0 0 0 0 0 0 0 0 0 0 0 0 0 0 0 0 0 0 0 0 0 0 0 0 0 0 0 0 0 0 0 0
0 0 0 0 0 0 0 0 0 0 -0 -0 -0 -0 0 0 0 0 0 0 0 0 0 0 0 0 0 0 0 0 0 0 0 0 0 0 0 0 0 0 0 0 0
0 0 0 0 -0 0 0 -0 0 -0 -0 -0 -0 -0 0 0 -0 -0 -0 -0 -0 0 0 0 0 0 0 0 0 0 0 0 0 0 0 0 0 0 0 0 0 0 0
0 0 0 -0 0 -0 0 -0 0 0 0 0 0 0 0 0 -0 -0 -0 -0 -0 -0 0 0 0 0 0 0 0 0 0 0 0 0 0 0 0 0 0 0 0 0 0
0 0 0 0 0 -0 -0 -0 -0 -0 -0 0 0 0 0 0 0 0 -0 -0 -0 -0 -0 -0 0 0 0 0 0 -0 0 0 0 0 0 0 0 0 0 0 0 -0 0
0 -0 -0 -0 -0 -0 -0 0 -0 -0 -0 -0 -0 -0 0 0 -0 -0 -0 -0 -0 0 0 0 -0 0 0 0 0 0 0 0 0 0 0 0 0 0 0 0 -0 0 0
0 -0 -0 -0 -0 -0 -0 -0 -0 0 -0 -0 -0 -0 0 -0 -0 -0 -0 -0 -0 -0 -0 -0 0 0 0 0 0 0 0 0 0 0 0 0 0 0 0 0 0 0 0
-0 -0 -0 0 0 -0 0 0 -0 0 -0 -0 0 0 -0 0 -0 -0 -0 -0 -0 -0 -0 0 -0 -0 -0 0 -0 0 0 0 0 0 0 0 0 0 0 0 0 0 0
0 0 0 0 -0 -0 -0 -0 -0 -0 -0 -0 -0 -0 -0 -0 0 -0 0 -0 -0 0 -0 -0 -0 -0 -0 0 -0 0 0 0 0 0 0 0 0 0 0 0 0 0 0
-0 0 0 0 0 -0 -0 -0 -0 -0 -0 -0 -0 -0 -0 -0 -0 -0 -0 -0 -0 -0 -0 -0 -0 -0 0 0 0 0 0 0 0 0 0 0 0 0 0 0 0 0 0
-0 -0 -0 -0 -0 -0 -0 -0 -0 -0 -0 0 0 0 -0 -0 -0 -0 -0 0 -0 -0 0 0 0 0 0 0 0 0 0 0 0 0 0 0 0 0 0 0 0 0 0
0 0 0 0 -0 -0 -0 -0 0 0 0 -0 0 -0 -0 -0 0 0 0 0 0 0 0 0 0 0 0 0 0 0 0 0 0 0 0 0 0 0 0 0 0 0 0
-0 -0 -0 0 -0 -0 0 -0 -0 -0 -0 -0 0 0 -0 0 0 0 0 0 0 0 0 0 0 0 0 0 0 0 0 0 0 0 0 0 0 0 0 0 0 0 0
0 0 0 0 -0 0 0 -0 0 0 0 0 0 0 0 0 0 0 0 0 0 0 0 0 0 0 0 0 0 0 0 0 0 0 0 0 0 0 0 0 0 0 0
0 0 0 0 0 0 0 0 0 0 0 0 0 0 0 0 0 0 0 0 0 0 0 0 0 0 0 0 0 0 0 0 0 0 0 0 0 0 0 0 0 0 0
0 0 0 0 0 0 0 0 0 0 0 0 0 0 0 0 0 0 0 0 0 0 0 0 0 0 0 0 0 0 0 0 0 0 0 0 0 0 0 0 0 0 0
0 0 0 0 0 0 0 0 0 0 0 0 0 0 0 0 0 0 0 0 0 0 0 0 0 0 0 0 0 0 0 0 0 0 0 0 0 0 0 0 0 0 0
0 0 0 0 0 0 0 0 0 0 0 0 0 0 0 0 0 0 0 0 0 0 0 0 0 0 0 0 0 0 0 0 0 0 0 0 0 0 0 0 0 0 0
0 0 0 0 0 0 0 0 0 0 0 0 0 0 0 0 0 0 0 0 0 0 0 0 0 0 0 0 0 0 0 0 0 0 0 0 0 0 0 0 0 0 0
0 0 0 0 0 0 0 0 0 0 0 0 0 0 0 0 0 0 0 0 0 0 0 0 0 0 0 0 0 0 0 0 0 0 0 0 0 0 0 0 0 0 0
0 0 0 0 0 0 0 0 0 0 0 0 0 0 0 0 0 0 0 0 0 0 0 0 0 0 0 0 0 0 0 0 0 0 0 0 0 0 0 -0 -0 0 0
0 0 0 0 0 0 0 0 0 0 0 0 0 0 0 0 0 0 0 0 0 0 0 0 0 0 0 0 0 0 0 0 0 0 0 0 -0 -0 0 0 0 0 0
Wind_Speed_500mb
64 60 50 51 45 45 48 54 51 49 36 40 34 28 26 21 21 23 24 23 20 16 12 9 9 10 14 12 19 18 22 22 23 20 21 22 25 26 21 13 12 11 11
65 54 45 42 46 46 41 51 45 40 33 34 34 29 22 22 21 22 21 19 16 11 9 5 8 5 3 9 15 14 18 18 18 22 27 30 32 27 23 19 17 17 12
53 44 42 40 45 38 44 39 38 34 30 29 25 22 19 20 21 22 20 17 14 10 7 7 9 5 6 5 8 11 19 17 16 26 29 40 40 34 31 24 22 20 14
41 41 38 42 46 42 33 32 29 24 20 23 21 18 17 15 17 18 19 12 7 8 8 9 8 6 1 2 10 13 21 24 18 22 25 43 46 43 36 32 27 23 14
38 38 38 38 34 26 26 23 17 18 21 19 19 18 18 20 24 24 20 13 10 9 8 6 9 3 2 2 8 12 13 17 23 21 29 46 55 50 42 36 31 23 12
31 30 33 22 22 25 24 30 28 23 18 20 16 14 15 22 27 26 12 11 16 25 10 11 10 10 8 6 3 3 7 13 21 25 32 46 54 54 45 33 30 21 10
23 23 16 14 17 16 20 21 21 20 19 19 18 16 21 27 28 29 30 21 19 28 32 25 23 25 22 17 14 11 5 5 13 26 34 49 61 56 41 39 28 17 14
13 14 15 15 20 19 14 16 17 19 21 22 23 21 22 27 33 27 16 21 23 26 29 33 32 33 33 32 31 25 22 16 12 13 24 46 47 39 38 31 26 16 12
17 14 18 19 20 18 17 18 19 17 19 19 20 20 20 24 26 26 23 21 24 23 24 22 27 28 28 29 25 28 21 25 28 19 27 35 34 41 37 27 23 22 10
16 18 18 18 20 18 20 24 24 17 17 16 19 20 21 24 26 20 15 23 25 24 28 24 21 25 23 25 21 16 16 20 25 28 37 37 39 34 34 26 23 9 10
18 20 20 17 24 22 19 18 20 21 22 24 22 23 23 27 27 27 17 20 18 17 20 21 21 20 19 22 24 15 19 25 27 32 39 38 35 36 26 27 16 9 4
14 14 19 24 25 22 24 27 15 25 27 27 29 28 29 22 27 30 23 20 16 17 18 19 21 21 24 24 21 23 25 30 31 36 40 43 42 40 38 22 16 11 18
23 22 21 22 20 20 21 22 22 24 27 30 26 24 23 24 24 24 23 22 20 18 21 21 21 21 23 23 25 24 27 31 35 35 33 40 37 36 29 22 15 22 18
20 24 24 25 25 26 23 22 25 27 31 32 29 26 23 23 23 25 21 19 22 18 19 19 20 18 17 20 23 26 29 34 37 38 37 41 36 34 28 24 27 25 24
21 21 20 21 22 22 29 28 27 32 31 28 24 23 26 24 23 26 23 16 12 11 5 4 10 16 20 23 24 25 28 32 39 41 41 38 36 26 27 28 30 36 41
16 16 19 20 18 16 14 20 33 32 33 26 25 28 23 28 22 22 23 22 20 13 18 22 22 21 23 26 28 28 29 33 34 38 38 34 30 30 34 37 39 45 51
21 22 22 18 16 18 18 22 25 28 28 26 24 28 38 41 31 29 29 27 28 28 27 24 26 28 34 31 35 37 37 38 38 37 36 32 35 40 41 40 40 46 50
22 24 23 21 23 20 24 27 26 26 31 29 28 29 30 32 30 26 26 36 44 39 28 29 35 38 38 39 39 42 43 43 44 44 45 45 44 45 43 42 45 46 42
21 23 24 24 23 24 27 27 32 30 31 37 29 24 31 22 24 30 27 31 29 31 45 44 41 40 43 44 44 46 48 51 50 49 47 46 46 43 42 45 47 48 47
28 30 27 28 27 29 30 30 33 37 36 40 41 36 29 27 32 28 28 30 37 40 37 35 40 42 41 43 45 44 45 45 44 43 42 41 45 46 45 42 44 48 52
26 27 30 33 31 32 30 33 38 42 46 45 49 62 55 53 44 43 38 37 35 38 39 41 40 40 41 43 43 38 41 42 43 45 43 45 46 40 42 50 54 54 51
27 27 28 30 32 32 35 42 45 48 55 55 49 41 48 74 72 60 53 47 42 40 40 42 42 42 42 39 38 42 46 48 50 46 48 45 46 57 55 51 49 43 35
28 30 30 32 35 41 47 51 52 57 58 61 67 67 65 73 84 80 74 68 62 55 51 48 46 40 40 39 42 45 49 44 43 48 53 48 46 44 40 36 32 45 53
30 31 33 32 33 34 35 45 54 55 56 57 60 62 60 57 61 62 73 80 84 77 71 66 60 56 55 54 50 50 51 50 40 40 41 49 54 48 50 48 50 49 46
30 32 33 33 33 33 34 37 39 41 37 35 37 43 46 49 49 54 60 59 62 68 71 70 73 71 66 64 62 59 57 59 63 58 53 54 52 48 37 36 36 33 30
30 31 33 33 33 33 32 31 32 32 34 36 39 41 42 42 42 43 44 45 48 46 50 55 60 65 67 68 66 64 63 64 65 59 50 42 40 38 35 32 28 26 25
Wind_Direction_500mb
322 317 311 311 308 309 314 323 323 318 319 319 323 324 323 310 310 321 322 319 318 315 306 309 299 282 240 232 262 243 239 228 221 225 212 198 199 208 203 201 149 127 106
320 313 312 313 318 314 318 322 327 324 320 323 321 319 314 314 323 327 324 320 315 319 315 307 307 284 245 228 204 246 252 236 216 219 214 188 196 207 200 182 165 137 125
317 317 315 311 319 324 320 327 331 322 324 323 332 328 326 329 334 332 328 320 307 299 298 276 270 265 254 281 284 238 248 243 224 216 203 188 193 195 185 176 167 148 124
316 319 315 315 320 323 326 330 335 340 345 348 356 9 11 10 13 9 359 335 322 306 291 300 301 327 307 218 258 238 237 222 208 213 208 191 192 184 184 170 162 148 136
318 311 319 320 329 339 344 345 339 337 345 32 23 27 32 21 27 11 4 10 358 13 13 37 106 210 53 184 184 212 250 225 214 205 205 187 185 177 176 173 157 149 133
337 323 325 345 6 5 18 29 39 45 28 358 350 359 8 23 6 15 31 50 58 40 45 97 81 60 34 26 17 330 264 215 209 210 206 194 187 182 181 168 156 148 95
335 333 354 31 10 6 1 14 15 25 31 20 23 28 39 29 39 47 52 62 65 59 61 70 76 63 57 58 66 56 69 78 192 204 196 193 189 187 175 158 156 134 97
15 34 42 360 351 354 5 16 20 35 37 26 28 40 45 36 33 33 50 59 62 55 62 64 64 64 60 55 52 53 75 80 98 156 182 191 189 176 162 155 157 128 107
47 15 351 3 3 6 22 23 25 29 41 37 36 31 36 46 32 39 54 56 67 54 52 52 59 64 55 45 40 33 51 70 86 120 147 164 151 155 162 157 142 136 114
23 2 16 27 20 32 37 34 29 35 34 30 36 39 22 33 47 40 47 57 51 53 49 60 72 54 42 42 40 40 63 87 86 105 131 139 155 161 163 153 137 80 126
36 47 25 42 29 23 10 21 24 35 30 25 29 36 50 38 43 39 62 47 52 56 56 59 52 35 27 16 9 54 97 104 100 111 120 124 129 131 139 139 133 166 157
49 39 39 33 33 20 26 30 47 31 27 31 37 38 29 37 38 34 42 40 47 55 45 31 28 16 0 9 34 71 99 119 114 109 121 121 121 130 134 130 128 124 115
61 40 36 34 23 12 23 30 23 23 26 28 29 35 33 33 30 35 38 44 33 39 33 29 17 15 22 43 54 73 102 115 128 125 119 120 122 130 122 115 117 109 109
42 39 37 28 26 35 29 32 31 25 24 21 24 31 37 40 30 26 22 12 15 25 25 27 44 45 58 60 65 73 100 114 125 125 124 123 121 120 107 109 114 111 111
37 33 29 23 21 43 49 54 46 32 23 25 24 34 27 21 17 16 21 26 24 14 47 45 78 72 70 65 65 76 97 118 121 126 125 123 118 113 113 118 119 116 102
20 20 15 11 14 20 49 55 33 29 16 34 39 29 18 358 351 356 3 6 14 43 80 78 79 79 76 78 80 87 100 115 124 122 126 122 121 118 118 122 120 110 106
14 19 26 23 17 20 23 33 28 18 28 38 33 30 48 44 46 51 54 55 70 73 76 79 81 77 89 84 90 93 99 108 121 135 130 124 119 118 119 119 115 114 115
41 25 40 37 40 39 44 36 44 42 46 40 41 46 36 36 38 34 42 52 59 69 77 78 87 89 88 89 91 94 100 107 113 118 119 119 120 119 115 113 117 117 111
59 50 43 48 48 49 55 46 50 50 61 50 58 64 23 45 61 70 75 79 73 66 72 84 88 91 92 91 92 96 101 104 110 115 117 119 120 120 114 111 112 116 114
46 55 51 59 59 59 53 51 56 61 61 58 44 48 63 69 67 74 67 76 77 79 83 87 94 94 92 93 94 95 100 106 110 116 122 123 124 122 115 113 114 120 117
54 52 59 66 68 63 60 62 71 72 67 59 62 69 55 58 76 75 77 85 89 85 86 90 95 94 97 100 95 97 103 104 111 115 114 118 119 116 116 112 113 114 110
64 68 71 73 75 69 71 76 79 72 76 64 62 53 60 74 77 79 81 87 90 92 94 94 92 92 100 99 99 102 104 106 107 106 113 114 113 113 107 103 105 103 103
71 76 80 83 76 79 81 82 79 80 79 76 74 72 70 66 74 74 75 80 83 86 90 92 88 85 90 94 102 106 104 98 97 101 108 108 114 111 106 100 102 113 112
78 85 96 93 86 78 72 81 81 79 80 78 71 57 56 58 66 70 74 79 81 81 85 85 87 90 90 93 100 100 100 100 97 104 105 107 106 103 101 103 107 104 93
84 91 95 94 88 82 80 76 72 64 56 53 56 57 61 65 62 65 67 66 76 81 81 79 79 83 86 91 93 94 95 100 105 103 106 108 104 93 89 93 99 97 88
83 91 94 94 91 89 85 78 73 67 65 64 66 65 64 66 69 70 71 70 68 72 73 74 81 84 84 85 88 91 95 97 91 88 91 92 93 92 91 91 91 89 86
Wind_Speed_850mb
64 60 50 51 45 45 48 54 51 49 36 40 34 28 26 21 21 23 24 23 20 16 12 9 9 10 14 12 19 18 22 22 23 20 21 22 25 26 21 13 12 11 11
65 54 45 42 46 46 41 51 45 40 33 34 34 29 22 22 21 22 21 19 16 11 9 5 8 5 3 9 15 14 18 18 18 22 27 30 32 27 23 19 17 17 12
53 44 42 40 45 38 44 39 38 34 30 29 25 22 19 20 21 22 20 17 14 10 7 7 9 5 6 5 8 11 19 17 16 26 29 40 40 34 31 24 22 20 14
41 41 38 42 46 42 33 32 29 24 20 23 21 18 17 15 17 18 19 12 7 8 8 9 8 6 1 2 10 13 21 24 18 22 25 43 46 43 36 32 27 23 14
38 38 38 38 34 26 26 23 17 18 21 19 19 18 18 20 24 24 20 13 10 9 8 6 9 3 2 2 8 12 13 17 23 21 29 46 55 50 42 36 31 23 12
31 30 33 22 22 25 24 30 28 23 18 20 16 14 15 22 27 26 12 11 16 25 10 11 10 10 8 6 3 3 7 13 21 25 32 46 54 54 45 33 30 21 10
23 23 16 14 17 16 20 21 21 20 19 19 18 16 21 27 28 29 30 21 19 28 32 25 23 25 22 17 14 11 5 5 13 26 34 49 61 56 41 39 28 17 14
13 14 15 15 20 19 14 16 17 19 21 22 23 21 22 27 33 27 16 21 23 26 29 33 32 33 33 32 31 25 22 16 12 13 24 46 47 39 38 31 26 16 12
17 14 18 19 20 18 17 18 19 17 19 19 20 20 20 24 26 26 23 21 24 23 24 22 27 28 28 29 25 28 21 25 28 19 27 35 34 41 37 27 23 22 10
16 18 18 18 20 18 20 24 24 17 17 16 19 20 21 24 26 20 15 23 25 24 28 24 21 25 23 25 21 16 16 20 25 28 37 37 39 34 34 26 23 9 10
18 20 20 17 24 22 19 18 20 21 22 24 22 23 23 27 27 27 17 20 18 17 20 21 21 20 19 22 24 15 19 25 27 32 39 38 35 36 26 27 16 9 4
14 14 19 24 25 22 24 27 15 25 27 27 29 28 29 22 27 30 23 20 16 17 18 19 21 21 24 24 21 23 25 30 31 36 40 43 42 40 38 22 16 11 18
23 22 21 22 20 20 21 22 22 24 27 30 26 24 23 24 24 24 23 22 20 18 21 21 21 21 23 23 25 24 27 31 35 35 33 40 37 36 29 22 15 22 18
20 24 24 25 25 26 23 22 25 27 31 32 29 26 23 23 23 25 21 19 22 18 19 19 20 18 17 20 23 26 29 34 37 38 37 41 36 34 28 24 27 25 24
21 21 20 21 22 22 29 28 27 32 31 28 24 23 26 24 23 26 23 16 12 11 5 4 10 16 20 23 24 25 28 32 39 41 41 38 36 26 27 28 30 36 41
16 16 19 20 18 16 14 20 33 32 33 26 25 28 23 28 22 22 23 22 20 13 18 22 22 21 23 26 28 28 29 33 34 38 38 34 30 30 34 37 39 45 51
21 22 22 18 16 18 18 22 25 28 28 26 24 28 38 41 31 29 29 27 28 28 27 24 26 28 34 31 35 37 37 38 38 37 36 32 35 40 41 40 40 46 50
22 24 23 21 23 20 24 27 26 26 31 29 28 29 30 32 30 26 26 36 44 39 28 29 35 38 38 39 39 42 43 43 44 44 45 45 44 45 43 42 45 46 42
21 23 24 24 23 24 27 27 32 30 31 37 29 24 31 22 24 30 27 31 29 31 45 44 41 40 43 44 44 46 48 51 50 49 47 46 46 43 42 45 47 48 47
28 30 27 28 27 29 30 30 33 37 36 40 41 36 29 27 32 28 28 30 37 40 37 35 40 42 41 43 45 44 45 45 44 43 42 41 45 46 45 42 44 48 52
26 27 30 33 31 32 30 33 38 42 46 45 49 62 55 53 44 43 38 37 35 38 39 41 40 40 41 43 43 38 41 42 43 45 43 45 46 40 42 50 54 54 51
27 27 28 30 32 32 35 42 45 48 55 55 49 41 48 74 72 60 53 47 42 40 40 42 42 42 42 39 38 42 46 48 50 46 48 45 46 57 55 51 49 43 35
28 30 30 32 35 41 47 51 52 57 58 61 67 67 65 73 84 80 74 68 62 55 51 48 46 40 40 39 42 45 49 44 43 48 53 48 46 44 40 36 32 45 53
30 31 33 32 33 34 35 45 54 55 56 57 60 62 60 57 61 62 73 80 84 77 71 66 60 56 55 54 50 50 51 50 40 40 41 49 54 48 50 48 50 49 46
30 32 33 33 33 33 34 37 39 41 37 35 37 43 46 49 49 54 60 59 62 68 71 70 73 71 66 64 62 59 57 59 63 58 53 54 52 48 37 36 36 33 30
30 31 33 33 33 33 32 31 32 32 34 36 39 41 42 42 42 43 44 45 48 46 50 55 60 65 67 68 66 64 63 64 65 59 50 42 40 38 35 32 28 26 25
Wind_Direction_850mb
322 317 311 311 308 309 314 323 323 318 319 319 323 324 323 310 310 321 322 319 318 315 306 309 299 282 240 232 262 243 239 228 221 225 212 198 199 208 203 201 149 127 106
320 313 312 313 318 314 318 322 327 324 320 323 321 319 314 314 323 327 324 320 315 319 315 307 307 284 245 228 204 246 252 236 216 219 214 188 196 207 200 182 165 137 125
317 317 315 311 319 324 320 327 331 322 324 323 332 328 326 329 334 332 328 320 307 299 298 276 270 265 254 281 284 238 248 243 224 216 203 188 193 195 185 176 167 148 124
316 319 315 315 320 323 326 330 335 340 345 348 356 9 11 10 13 9 359 335 322 306 291 300 301 327 307 218 258 238 237 222 208 213 208 191 192 184 184 170 162 148 136
318 311 319 320 329 339 344 345 339 337 345 32 23 27 32 21 27 11 4 10 358 13 13 37 106 210 53 184 184 212 250 225 214 205 205 187 185 177 176 173 157 149 133
337 323 325 345 6 5 18 29 39 45 28 358 350 359 8 23 6 15 31 50 58 40 45 97 81 60 34 26 17 330 264 215 209 210 206 194 187 182 181 168 156 148 95
335 333 354 31 10 6 1 14 15 25 31 20 23 28 39 29 39 47 52 62 65 59 61 70 76 63 57 58 66 56 69 78 192 204 196 193 189 187 175 158 156 134 97
15 34 42 360 351 354 5 16 20 35 37 26 28 40 45 36 33 33 50 59 62 55 62 64 64 64 60 55 52 53 75 80 98 156 182 191 189 176 162 155 157 128 107
47 15 351 3 3 6 22 23 25 29 41 37 36 31 36 46 32 39 54 56 67 54 52 52 59 64 55 45 40 33 51 70 86 120 147 164 151 155 162 157 142 136 114
23 2 16 27 20 32 37 34 29 35 34 30 36 39 22 33 47 40 47 57 51 53 49 60 72 54 42 42 40 40 63 87 86 105 131 139 155 161 163 153 137 80 126
36 47 25 42 29 23 10 21 24 35 30 25 29 36 50 38 43 39 62 47 52 56 56 59 52 35 27 16 9 54 97 104 100 111 120 124 129 131 139 139 133 166 157
49 39 39 33 33 20 26 30 47 31 27 31 37 38 29 37 38 34 42 40 47 55 45 31 28 16 0 9 34 71 99 119 114 109 121 121 121 130 134 130 128 124 115
61 40 36 34 23 12 23 30 23 23 26 28 29 35 33 33 30 35 38 44 33 39 33 29 17 15 22 43 54 73 102 115 128 125 119 120 122 130 122 115 117 109 109
42 39 37 28 26 35 29 32 31 25 24 21 24 31 37 40 30 26 22 12 15 25 25 27 44 45 58 60 65 73 100 114 125 125 124 123 121 120 107 109 114 111 111
37 33 29 23 21 43 49 54 46 32 23 25 24 34 27 21 17 16 21 26 24 14 47 45 78 72 70 65 65 76 97 118 121 126 125 123 118 113 113 118 119 116 102
20 20 15 11 14 20 49 55 33 29 16 34 39 29 18 358 351 356 3 6 14 43 80 78 79 79 76 78 80 87 100 115 124 122 126 122 121 118 118 122 120 110 106
14 19 26 23 17 20 23 33 28 18 28 38 33 30 48 44 46 51 54 55 70 73 76 79 81 77 89 84 90 93 99 108 121 135 130 124 119 118 119 119 115 114 115
41 25 40 37 40 39 44 36 44 42 46 40 41 46 36 36 38 34 42 52 59 69 77 78 87 89 88 89 91 94 100 107 113 118 119 119 120 119 115 113 117 117 111
59 50 43 48 48 49 55 46 50 50 61 50 58 64 23 45 61 70 75 79 73 66 72 84 88 91 92 91 92 96 101 104 110 115 117 119 120 120 114 111 112 116 114
46 55 51 59 59 59 53 51 56 61 61 58 44 48 63 69 67 74 67 76 77 79 83 87 94 94 92 93 94 95 100 106 110 116 122 123 124 122 115 113 114 120 117
54 52 59 66 68 63 60 62 71 72 67 59 62 69 55 58 76 75 77 85 89 85 86 90 95 94 97 100 95 97 103 104 111 115 114 118 119 116 116 112 113 114 110
64 68 71 73 75 69 71 76 79 72 76 64 62 53 60 74 77 79 81 87 90 92 94 94 92 92 100 99 99 102 104 106 107 106 113 114 113 113 107 103 105 103 103
71 76 80 83 76 79 81 82 79 80 79 76 74 72 70 66 74 74 75 80 83 86 90 92 88 85 90 94 102 106 104 98 97 101 108 108 114 111 106 100 102 113 112
78 85 96 93 86 78 72 81 81 79 80 78 71 57 56 58 66 70 74 79 81 81 85 85 87 90 90 93 100 100 100 100 97 104 105 107 106 103 101 103 107 104 93
84 91 95 94 88 82 80 76 72 64 56 53 56 57 61 65 62 65 67 66 76 81 81 79 79 83 86 91 93 94 95 100 105 103 106 108 104 93 89 93 99 97 88
83 91 94 94 91 89 85 78 73 67 65 64 66 65 64 66 69 70 71 70 68 72 73 74 81 84 84 85 88 91 95 97 91 88 91 92 93 92 91 91 91 89 86